Location: Mannheim
(49.4880°N, 8.4650°E)
Time: 05:17:58
(UTC+02:00)

ACS3 Solar Sail - Pass Details

Date: 23 September 2024
Orbit: 963 x 1036 km, 97.4° (Epoch: 04 October)

Event Time Altitude Azimuth Distance (km) Brightness Sun altitude
Exits shadow 20:47:34 14° 141° (SE) 2,556 3.5 -14.7°
Maximum altitude 20:52:59 52° 69° (ENE) 1,266 2.1 -15.5°
Drops below altitude 10° 20:59:10 10° 355° (N) 2,837 4.5 -16.5°
Sets 21:01:43 0° 351° (N) 3,786 5.3 -16.9°
